User: anonymous   Login
Location: Unspecified
(0.0000°N, 0.0000°E)
Time: 06:37:23
(UTC+00:00)
Language:

TURKSAT 3U - Orbit

View from above orbital plane
View from above orbital plane
View from above satellite
View from above satellite

Ground track
Ground track

The orbit data is extracted from the following two-line orbital elements,

1 39152U 13018C   19082.78025092  .00000160  00000-0  27629-4 0  9993
2 39152  97.9152 172.6752 0018244 110.4972 249.8201 14.80641634318957
Epoch (UTC): 23 March 2019 18:43:33
Eccentricity: 0.0018244
inclination: 97.9152°
perigee height: 614 km
apogee height: 640 km
right ascension of ascending node: 172.6752°
argument of perigee: 110.4972°
revolutions per day: 14.80641634
mean anomaly at epoch: 249.8201°
orbit number at epoch: 31895

The dashed part of the orbit path shows where the satellite is in the earth's shadow,  

DLR